Flag for Germany Weather past 2 weeks in Delmenhorst, Lower Saxony, Germany

Now
50 °F

Sunny.


Feels Like: 49 °F
Forecast: 39 / 60 °F
Wind: 3 mph from Southeast

Location: Bremen Airport


UV Index: 3 (Moderate)

Visibility: 10 mi


Pressure: 30.36 "Hg

Humidity: 58%

Dew point: 36 °F

Location of DelmenhorstLocation

Historic Weather in Delmenhorst

°F

Delmenhorst temperature yesterday

Maximum temperature yesterday: 48 °F (at 1:20 PM)
Minimum temperature yesterday: 39 °F (at 10:50 PM)
Average temperature yesterday: 45 °F

Past Weeks' High & Low Weather Summary

 TemperatureHumidityPressure
High68 °F (Apr 2, 3:20 PM)100% (Apr 2, 5:50 AM)30.48 "Hg (Apr 2, 5:50 AM)
Low28 °F (Apr 16, 4:20 AM)39% (Apr 16, 4:20 PM)29.62 "Hg (Apr 3, 5:20 PM)
Average50 °F80%29.97 "Hg
* Reported Apr 1 8:20 PM — Apr 16 8:50 PM, Delmenhorst, Weather by CustomWeather, © 2014

Note: Actual official high and low records may vary slightly from our data, if they occured in-between our weather recording intervals... More about our weather records

Advertising

Historic Weather Conditions — Data for Previous 24 hours

 ConditionsComfort  
Time TempWeatherWind HumidityBarometerVisibility
8:50 PM
Apr 16
52 °FSunny.3 mph50%30.36 "Hg10 mi
8:20 PM54 °FSunny.3 mph47%30.36 "Hg10 mi
7:50 PM54 °FSunny.5 mph47%30.36 "Hg10 mi
7:20 PM54 °FPassing clouds.6 mph47%30.36 "HgN/A
6:50 PM55 °FPassing clouds.6 mph44%30.39 "HgN/A
6:20 PM55 °FPassing clouds.3 mph44%30.39 "HgN/A
5:50 PM54 °FPassing clouds.6 mph54%30.39 "HgN/A
5:20 PM55 °FPassing clouds.3 mph44%30.39 "HgN/A
4:50 PM55 °FSunny.6 mph44%30.39 "Hg10 mi
4:20 PM57 °FPassing clouds.5 mph39%30.42 "HgN/A
3:50 PM55 °FSunny.2 mph44%30.42 "Hg10 mi
3:20 PM54 °FScattered clouds.3 mph47%30.42 "HgN/A
2:50 PM55 °FScattered clouds.3 mph44%30.42 "HgN/A
2:20 PM55 °FScattered clouds.3 mph44%30.42 "HgN/A
1:50 PM54 °FScattered clouds.5 mph47%30.45 "HgN/A
1:20 PM54 °FScattered clouds.5 mph44%30.45 "HgN/A
12:50 PM54 °FScattered clouds.6 mph54%30.45 "HgN/A
12:20 PM52 °FScattered clouds.3 mph54%30.45 "HgN/A
11:50 AM50 °FScattered clouds.6 mph58%30.45 "HgN/A
11:20 AM50 °FSunny.5 mph54%30.45 "Hg10 mi
10:50 AM50 °FPassing clouds.3 mph54%30.45 "HgN/A
10:20 AM48 °FSunny.2 mph58%30.48 "Hg10 mi
9:50 AM46 °FSunny.2 mph62%30.45 "Hg10 mi
9:20 AM45 °FSunny.1 mph76%30.45 "Hg10 mi
8:50 AM41 °FSunny.1 mph100%30.45 "Hg10 mi
8:20 AM36 °FSunny.1 mph100%30.45 "Hg10 mi
7:50 AM32 °FFog.2 mph100%30.45 "HgN/A
7:20 AM30 °FIce fog.2 mph100%30.45 "Hg0 mi
6:50 AM28 °FChilly.3 mph100%30.45 "Hg5 mi
6:20 AM30 °FChilly.1 mph100%30.42 "Hg1 mi
5:50 AM30 °FLight fog.1 mph100%30.42 "Hg1 mi
5:20 AM30 °FFog.2 mph100%30.42 "HgN/A
4:50 AM32 °FFog.1 mph100%30.42 "Hg5 mi
4:20 AM28 °FFog.3 mph100%30.42 "Hg5 mi
3:50 AM30 °FLight fog.1 mph100%30.39 "Hg2 mi
3:20 AM32 °FFog.2 mph100%30.39 "HgN/A
2:50 AM32 °FFog.1 mph100%30.39 "HgN/A
1:50 AM34 °FClear.6 mph100%30.39 "Hg10 mi
12:50 AM36 °FClear.3 mph100%30.36 "Hg10 mi
12:20 AM36 °FClear.6 mph93%30.36 "Hg10 mi
11:50 PM
Apr 15
39 °FClear.6 mph87%30.36 "Hg10 mi
11:20 PM39 °FClear.7 mph87%30.36 "Hg10 mi
10:50 PM39 °FClear.8 mph93%30.33 "Hg10 mi
10:20 PM41 °FClear.9 mph87%30.33 "Hg10 mi
Weather by CustomWeather, © 2014

See weather overview